Location: Pagani
(40.7500°N, 14.6167°E)
Time: 07:49:59
(UTC+00:00)

Cosmos 2369 - Pass Details

Date: 15 May 2026
Orbit: 836 x 856 km, 71.0° (Epoch: 5 June)

Event Time Altitude Azimuth Distance (km) Brightness Sun altitude
Rises 19:01:04 0° 340° (NNW) 3,429 7.9 -8.9°
Reaches altitude 10° 19:03:35 10° 344° (NNW) 2,491 7.0 -9.2°
Maximum altitude 19:09:13 56° 63° (ENE) 1,013 4.0 -10.1°
Enters shadow 19:14:10 13° 139° (SE) 2,247 5.3 -10.9°
